When you browse on this site, cookies collect data to enhance your experience and personalize the content and advertising you see.
Visit our Privacy Policy to learn more. By continuing to use the site, you agree to this use of cookies and data.
  • In Romania
  • List of Countries
  • For 7 days
  • Water Temperature
  • Weather Map
  • Weather Widgets
  • user-avatar
    Login

    Hourly Weather Nesebyr

    Today, 22 January, Wednesday

    Time Temperature Precipitation Wind Pressure Humidity
    00:00 -1°C° 0 mm 2 mps 774 mmHg 78%
    01:00 -1°C° 0 mm 2 mps 774 mmHg 78%
    02:00 -1°C° 0 mm 2 mps 774 mmHg 78%
    03:00 -1°C° 0 mm 2 mps 773 mmHg 77%
    04:00 -1°C° 0 mm 2 mps 773 mmHg 76%
    05:00 -1°C° 0 mm 2 mps 773 mmHg 76%
    06:00 -1°C° 0 mm 2 mps 772 mmHg 74%
    07:00 -1°C° 0 mm 2 mps 772 mmHg 73%
    08:00 -1°C° 0 mm 2 mps 772 mmHg 71%
    09:00 +1°C° 0 mm 3 mps 771 mmHg 63%
    10:00 +3°C° 0 mm 3 mps 771 mmHg 54%
    11:00 +7°C° 0 mm 3 mps 771 mmHg 46%
    12:00 +7°C° 0 mm 3 mps 770 mmHg 45%
    13:00 +7°C° 0 mm 4 mps 769 mmHg 44%
    14:00 +8°C° 0 mm 4 mps 768 mmHg 42%
    15:00 +8°C° 0 mm 3 mps 767 mmHg 47%
    16:00 +5°C° 0 mm 3 mps 767 mmHg 52%
    17:00 +4°C° 0 mm 3 mps 766 mmHg 56%
    18:00 +4°C° 0 mm 3 mps 765 mmHg 57%
    19:00 +3°C° 0 mm 3 mps 765 mmHg 57%
    20:00 +1°C° 0 mm 4 mps 765 mmHg 58%
    21:00 +2°C° 0 mm 3 mps 764 mmHg 59%
    22:00 +2°C° 0 mm 3 mps 764 mmHg 60%
    23:00 +1°C° 0 mm 3 mps 763 mmHg 61%

    Tomorrow, 23 January, Thursday

    Time Temperature Precipitation Wind Pressure Humidity
    00:00 +1°C° 0 mm 3 mps 763 mmHg 60%
    01:00 +1°C° 0 mm 3 mps 763 mmHg 59%
    02:00 +1°C° 0 mm 3 mps 764 mmHg 58%
    03:00 0°C° 0 mm 4 mps 764 mmHg 56%
    04:00 0°C° 0 mm 5 mps 765 mmHg 55%
    05:00 -1°C° 0 mm 6 mps 765 mmHg 54%
    06:00 0°C° 0 mm 5 mps 766 mmHg 57%
    07:00 0°C° 0 mm 5 mps 768 mmHg 60%
    08:00 -1°C° 0 mm 4 mps 769 mmHg 64%
    09:00 +1°C° 0 mm 5 mps 769 mmHg 59%
    10:00 +2°C° 0 mm 5 mps 770 mmHg 54%
    11:00 +3°C° 0 mm 6 mps 770 mmHg 49%
    12:00 +5°C° 0 mm 5 mps 770 mmHg 46%
    13:00 +5°C° 0 mm 5 mps 770 mmHg 43%
    14:00 +6°C° 0 mm 5 mps 770 mmHg 41%
    15:00 +5°C° 0 mm 4 mps 770 mmHg 46%
    16:00 +4°C° 0 mm 4 mps 771 mmHg 51%
    17:00 +4°C° 0 mm 3 mps 771 mmHg 56%
    18:00 +3°C° 0 mm 3 mps 771 mmHg 60%
    19:00 +2°C° 0 mm 3 mps 772 mmHg 64%
    20:00 +1°C° 0 mm 3 mps 772 mmHg 68%
    21:00 +1°C° 0 mm 3 mps 772 mmHg 69%
    22:00 +2°C° 0 mm 2 mps 773 mmHg 70%
    23:00 +1°C° 0 mm 2 mps 773 mmHg 72%

    Day after tomorrow, 24 January, Friday

    Time Temperature Precipitation Wind Pressure Humidity
    00:00 +1°C° 0 mm 2 mps 773 mmHg 72%
    01:00 +1°C° 0 mm 2 mps 773 mmHg 73%
    02:00 +1°C° 0 mm 2 mps 773 mmHg 73%
    03:00 +1°C° 0 mm 1 mps 773 mmHg 74%
    04:00 +1°C° 0 mm 1 mps 773 mmHg 74%
    05:00 +1°C° 0 mm 1 mps 773 mmHg 75%
    06:00 +1°C° 0 mm 1 mps 773 mmHg 74%
    07:00 +1°C° 0 mm 1 mps 773 mmHg 73%
    08:00 +1°C° 0 mm 1 mps 773 mmHg 72%
    09:00 +3°C° 0 mm 1 mps 773 mmHg 62%
    10:00 +4°C° 0 mm 2 mps 773 mmHg 52%
    11:00 +6°C° 0 mm 2 mps 773 mmHg 43%
    12:00 +7°C° 0 mm 3 mps 772 mmHg 41%
    13:00 +7°C° 0 mm 3 mps 772 mmHg 39%
    14:00 +7°C° 0 mm 4 mps 771 mmHg 37%
    15:00 +6°C° 0 mm 4 mps 771 mmHg 42%
    16:00 +5°C° 0 mm 4 mps 771 mmHg 47%
    17:00 +3°C° 0 mm 3 mps 770 mmHg 52%
    18:00 +3°C° 0 mm 3 mps 770 mmHg 54%
    19:00 +2°C° 0 mm 3 mps 770 mmHg 57%
    20:00 +1°C° 0 mm 3 mps 770 mmHg 59%
    21:00 +1°C° 0 mm 3 mps 770 mmHg 62%
    22:00 +1°C° 0 mm 3 mps 770 mmHg 65%
    23:00 +1°C° 0 mm 3 mps 769 mmHg 68%

    25 January, Saturday

    Time Temperature Precipitation Wind Pressure Humidity
    00:00 0°C° 0 mm 3 mps 769 mmHg 71%
    01:00 0°C° 0 mm 3 mps 769 mmHg 74%
    02:00 0°C° 0 mm 3 mps 768 mmHg 77%
    03:00 0°C° 0 mm 3 mps 768 mmHg 80%
    04:00 0°C° 0 mm 3 mps 767 mmHg 83%
    05:00 0°C° 0 mm 3 mps 767 mmHg 86%
    06:00 0°C° 0 mm 3 mps 767 mmHg 87%
    07:00 0°C° 0 mm 3 mps 767 mmHg 88%
    08:00 0°C° 0 mm 3 mps 766 mmHg 89%
    09:00 +1°C° 0 mm 4 mps 766 mmHg 80%
    10:00 +5°C° 0 mm 4 mps 766 mmHg 71%
    11:00 +7°C° 0 mm 4 mps 766 mmHg 62%
    12:00 +8°C° 0 mm 4 mps 766 mmHg 59%
    13:00 +10°C° 0 mm 4 mps 766 mmHg 57%
    14:00 +11°C° 0 mm 4 mps 765 mmHg 54%
    15:00 +10°C° 0 mm 4 mps 765 mmHg 58%
    16:00 +8°C° 0 mm 3 mps 765 mmHg 63%
    17:00 +7°C° 0 mm 2 mps 765 mmHg 67%
    18:00 +7°C° 0 mm 2 mps 766 mmHg 69%
    19:00 +6°C° 0 mm 2 mps 766 mmHg 70%
    20:00 +5°C° 0 mm 2 mps 766 mmHg 72%
    21:00 +5°C° 0 mm 2 mps 766 mmHg 73%
    22:00 +5°C° 0 mm 2 mps 766 mmHg 75%
    23:00 +5°C° 0 mm 2 mps 767 mmHg 76%

    26 January, Sunday

    Time Temperature Precipitation Wind Pressure Humidity
    00:00 +5°C° 0 mm 2 mps 767 mmHg 76%
    01:00 +4°C° 0 mm 2 mps 767 mmHg 76%
    02:00 +4°C° 0 mm 2 mps 767 mmHg 77%
    03:00 +4°C° 0 mm 2 mps 767 mmHg 77%
    04:00 +5°C° 0 mm 1 mps 767 mmHg 78%
    05:00 +5°C° 0 mm 1 mps 767 mmHg 78%
    06:00 +5°C° 0 mm 1 mps 767 mmHg 78%
    07:00 +5°C° 0 mm 1 mps 767 mmHg 77%
    08:00 +5°C° 0 mm 1 mps 768 mmHg 77%
    09:00 +7°C° 0 mm 1 mps 768 mmHg 71%
    10:00 +9°C° 0 mm 1 mps 768 mmHg 64%
    11:00 +10°C° 0 mm 1 mps 768 mmHg 58%
    12:00 +11°C° 0 mm 1 mps 767 mmHg 55%
    13:00 +12°C° 0 mm 1 mps 767 mmHg 53%
    14:00 +13°C° 0 mm 1 mps 766 mmHg 51%
    15:00 +12°C° 0 mm 1 mps 766 mmHg 56%
    16:00 +11°C° 0 mm 1 mps 766 mmHg 61%
    17:00 +10°C° 0 mm 1 mps 766 mmHg 67%
    18:00 +9°C° 0 mm 1 mps 766 mmHg 69%
    19:00 +9°C° 0 mm 1 mps 766 mmHg 72%
    20:00 +8°C° 0 mm 1 mps 766 mmHg 74%
    21:00 +8°C° 0 mm 1 mps 766 mmHg 77%
    22:00 +8°C° 0 mm 1 mps 766 mmHg 80%
    23:00 +8°C° 0 mm 1 mps 766 mmHg 84%

    27 January, Monday

    Time Temperature Precipitation Wind Pressure Humidity
    00:00 +8°C° 0 mm 1 mps 766 mmHg 85%
    01:00 +8°C° 0 mm 1 mps 766 mmHg 87%
    02:00 +7°C° 0 mm 0 mps 766 mmHg 89%
    03:00 +7°C° 0 mm 1 mps 765 mmHg 90%
    04:00 +7°C° 0 mm 1 mps 765 mmHg 90%
    05:00 +7°C° 0 mm 1 mps 765 mmHg 91%
    06:00 +7°C° 0 mm 1 mps 765 mmHg 92%
    07:00 +7°C° 0 mm 1 mps 766 mmHg 92%
    08:00 +7°C° 0 mm 1 mps 766 mmHg 93%
    09:00 +7°C° 0 mm 2 mps 766 mmHg 87%
    10:00 +8°C° 0 mm 2 mps 766 mmHg 81%
    11:00 +10°C° 0 mm 2 mps 767 mmHg 74%
    12:00 +10°C° 0 mm 2 mps 766 mmHg 69%
    13:00 +12°C° 0 mm 2 mps 766 mmHg 65%
    14:00 +12°C° 0 mm 2 mps 766 mmHg 60%
    15:00 +10°C° 0 mm 2 mps 766 mmHg 62%
    16:00 +11°C° 0 mm 1 mps 766 mmHg 65%
    17:00 +10°C° 0 mm 1 mps 766 mmHg 68%
    18:00 +9°C° 0 mm 1 mps 767 mmHg 70%
    19:00 +9°C° 0 mm 1 mps 767 mmHg 73%
    20:00 +8°C° 0 mm 1 mps 767 mmHg 75%
    21:00 +8°C° 0 mm 1 mps 767 mmHg 77%
    22:00 +7°C° 0 mm 1 mps 768 mmHg 79%
    23:00 +7°C° 0 mm 1 mps 768 mmHg 80%
    Show more